TimePST,TemperatureF,Dew PointF,Humidity,Sea Level PressureIn,VisibilityMPH,Wind Direction,Wind SpeedMPH,Gust SpeedMPH,PrecipitationIn,Events,Conditions,WindDirDegrees,DateUTC
12:18 AM,35.6,33.8,93,30.01,10.0,ENE,4.6,-,0.01,,Overcast,70,2012-12-04 08:18:00
12:41 AM,37.4,33.8,87,30.01,9.0,SSE,12.7,19.6,0.01,Rain,Light Rain,160,2012-12-04 08:41:00
12:53 AM,37.9,33.1,83,30.02,9.0,South,11.5,17.3,0.02,Rain,Light Rain,170,2012-12-04 08:53:00
1:17 AM,37.4,33.8,87,30.00,9.0,SE,8.1,-,0.02,Rain,Light Rain,130,2012-12-04 09:17:00
1:51 AM,37.4,33.8,87,29.99,7.0,ENE,4.6,-,0.04,Rain,Light Rain,70,2012-12-04 09:51:00
1:53 AM,37.9,33.1,83,30.01,8.0,Variable,3.5,-,0.04,Rain,Light Rain,0,2012-12-04 09:53:00
2:07 AM,39.2,33.8,81,30.00,10.0,East,8.1,-,0.00,Rain,Light Rain,90,2012-12-04 10:07:00
2:53 AM,37.0,34.0,89,30.02,9.0,ENE,5.8,-,0.01,Rain,Light Rain,70,2012-12-04 10:53:00
3:53 AM,37.9,34.0,86,30.02,10.0,East,5.8,-,0.00,,Overcast,80,2012-12-04 11:53:00
4:53 AM,39.9,34.0,79,30.03,10.0,SE,6.9,-,N/A,,Overcast,130,2012-12-04 12:53:00
5:53 AM,39.9,35.1,83,30.05,10.0,SE,8.1,-,N/A,,Mostly Cloudy,140,2012-12-04 13:53:00
6:53 AM,37.9,35.1,89,30.07,10.0,NE,3.5,-,N/A,,Overcast,50,2012-12-04 14:53:00
7:53 AM,43.0,36.0,76,30.06,10.0,SE,10.4,-,N/A,,Overcast,140,2012-12-04 15:53:00
8:53 AM,43.0,37.0,80,30.06,10.0,SSE,3.5,-,N/A,,Scattered Clouds,160,2012-12-04 16:53:00
9:53 AM,46.0,39.0,76,30.06,10.0,SSE,10.4,-,N/A,,Overcast,160,2012-12-04 17:53:00
10:53 AM,46.9,39.0,74,30.05,10.0,SE,3.5,-,N/A,,Overcast,130,2012-12-04 18:53:00
11:53 AM,48.0,39.0,71,30.03,10.0,SSE,4.6,-,N/A,,Overcast,150,2012-12-04 19:53:00
12:53 PM,48.9,39.9,71,30.01,10.0,South,9.2,-,0.00,Rain,Light Rain,190,2012-12-04 20:53:00
1:53 PM,46.9,43.0,86,30.01,10.0,South,8.1,-,0.01,Rain,Light Rain,180,2012-12-04 21:53:00
2:53 PM,46.9,43.0,86,30.01,10.0,South,8.1,-,0.01,Rain,Light Rain,180,2012-12-04 22:53:00
3:53 PM,45.0,41.0,86,30.02,10.0,South,6.9,-,0.01,Rain,Light Rain,190,2012-12-04 23:53:00
4:53 PM,44.1,41.0,89,30.02,10.0,South,3.5,-,0.03,Rain,Light Rain,190,2012-12-05 00:53:00
5:53 PM,45.0,41.0,86,30.00,10.0,SSE,5.8,-,0.01,Rain,Light Rain,150,2012-12-05 01:53:00
6:53 PM,43.0,41.0,93,30.02,10.0,East,3.5,-,0.00,Rain,Light Rain,90,2012-12-05 02:53:00
7:53 PM,43.0,41.0,93,30.01,10.0,SSE,9.2,-,0.03,Rain,Light Rain,160,2012-12-05 03:53:00
8:53 PM,44.1,39.9,85,30.01,10.0,SSE,13.8,-,N/A,,Overcast,160,2012-12-05 04:53:00
9:53 PM,44.1,39.9,85,29.99,10.0,SSE,9.2,-,0.01,Rain,Light Rain,150,2012-12-05 05:53:00
10:53 PM,44.1,39.9,85,29.97,10.0,SSE,13.8,-,0.00,,Overcast,160,2012-12-05 06:53:00
11:53 PM,44.1,39.9,85,29.98,10.0,South,6.9,-,0.01,Rain,Light Rain,170,2012-12-05 07:53:00